Flag for U.S.A. Weather past 2 weeks in Denver, Colorado, U.S.A.

Now
40 °F

Passing clouds.


Feels Like: 38 °F
Forecast: 35 / 60 °F
Wind: 3 mph from Northwest

Location: Buckley Air Force Base

Current Time: Apr 28, 2015 at 1:13:55 AM

Latest Report: Apr 27, 2015 at 11:58 PM


Visibility: 10 mi

Pressure: 30.33 "Hg

Humidity: 100%

Dew point: 40 °F

Location of DenverLocation

Historic Weather in Denver — Graph

°F

Denver temperature yesterday

Maximum temperature yesterday: 44 °F (at 5:58 PM)
Minimum temperature yesterday: 36 °F (at 6:58 AM)
Average temperature yesterday: 40 °F

Past Weeks' High & Low Weather Summary

 TemperatureHumidityPressure
High74 °F (Apr 14, 3:58 PM)100% (Apr 16, 7:58 AM)30.33 "Hg (Apr 16, 7:58 AM)
Low31 °F (Apr 20, 6:58 AM)9% (Apr 14, 1:58 PM)29.44 "Hg (Apr 15, 3:58 AM)
Average47 °F63%29.87 "Hg
* Reported Apr 12 11:58 PM — Apr 27 11:58 PM, Denver, Weather by CustomWeather, © 2015

Note: Actual official high and low records may vary slightly from our data, if they occured in-between our weather recording intervals... More about our weather records

Advertising

Denver weather history for previous 24 hours

 ConditionsComfort  
Time TempWeatherWind HumidityBarometerVisibility
11:58 PM
Mon, Apr 27
40 °FPassing clouds.3 mph100%30.33 "Hg10 mi
10:58 PM41 °FPassing clouds.No wind99%30.33 "Hg10 mi
9:58 PM42 °FPassing clouds.No wind99%30.31 "Hg10 mi
8:58 PM42 °FMostly cloudy.2 mph99%30.30 "Hg10 mi
7:58 PM43 °FOvercast.5 mph98%30.30 "Hg10 mi
6:58 PM44 °FMore clouds than sun.3 mph93%30.26 "Hg10 mi
5:58 PM44 °FMore clouds than sun.6 mph89%30.26 "Hg10 mi
4:58 PM44 °FMore clouds than sun.6 mph99%30.25 "Hg10 mi
3:58 PM42 °FCloudy.7 mph100%30.27 "Hg10 mi
2:58 PM42 °FDrizzle. Mostly cloudy.8 mph99%30.26 "Hg10 mi
1:58 PM42 °FMostly cloudy.10 mph99%30.25 "Hg10 mi
12:58 PM41 °FMostly cloudy.7 mph100%30.27 "Hg10 mi
11:58 AM41 °FMostly cloudy.8 mph100%30.28 "Hg9 mi
10:58 AM39 °FFog.8 mph100%30.27 "Hg5 mi
6:58 AM36 °FDrizzle. Fog.7 mph100%30.17 "Hg4 mi
5:58 AM37 °FDrizzle. Fog.8 mph100%30.14 "Hg5 mi
5:00 AM37 °FDrizzle. Low clouds.9 mph100%30.14 "Hg8 mi
4:58 AM38 °FLow clouds.9 mph100%30.11 "Hg9 mi
3:58 AM38 °FLight rain. Fog.5 mph100%30.10 "Hg5 mi
2:58 AM38 °FLight rain. Fog.8 mph100%30.07 "Hg2 mi
1:58 AM38 °FMostly cloudy.5 mph100%30.08 "Hg10 mi
1:50 AM37 °FOvercast.5 mph100%30.11 "Hg10 mi
Weather by CustomWeather, © 2015

See weather overviewHow to use our weather pages